User: anonymous   Login
Location: Unspecified
(0.0000°N, 0.0000°E)
Time: 05:48:51
(UTC+00:00)
Language:

STARLINK-3680 - Orbit

View from above orbital plane
View from above orbital plane
View from above satellite
View from above satellite

Ground track
Ground track

The orbit is defined by the following mean orbital elements,

1 51969U          26145.37317189 +.00000000 +00000-0 +85897-4 0 00001
2 51969  53.1610  27.6677 0001634  87.4369 272.6819 15.31702366    03
Epoch (UTC): 25 May 2026 08:57:22
Eccentricity: 0.0001634
inclination: 53.1610°
perigee height: 470 km
apogee height: 472 km
right ascension of ascending node: 27.6677°
argument of perigee: 87.4369°
revolutions per day: 15.31702366
mean anomaly at epoch: 272.6819°

The dashed part of the orbit path shows where the satellite is in the earth's shadow,  

DLR